Change the Weather History Date:

Monday, September 2, 2013

  Actual Average Record
Temperature  
Mean Temperature 74 °F -  
Max Temperature 87 °F 77 °F 91 °F (2006)
Min Temperature 60 °F 61 °F 60 °F (1997)
Cooling Degree Days 8    
Growing Degree Days 24 (Base 50)    
Moisture  
Dew Point 60 °F    
Average Humidity 67    
Maximum Humidity 94    
Minimum Humidity 27    
Precipitation  
Precipitation 0.00 in 0.01 in - ()
Sea Level Pressure  
Sea Level Pressure 29.94 in    
Wind  
Wind Speed 3 mph ()    
Max Wind Speed 16 mph    
Max Gust Speed -    
Visibility 4.1 miles    
Events      
Averages and records for this station are not official NWS values.
T = Trace of Precipitation, MM = Missing Value Source: Averaged Metar Reports

Daily Weather History Graph

Daily Weather History Graph

Search for Another Location

Airport or City:

Trip Planner

Search our weather history database for the weather conditions in past years. The results will help you decide how hot, cold, wet, or windy it might be!

Date:

Astronomy

Sep. 02, 2013 Rise Set
Actual Time 7:01 AM WEST 7:51 PM WEST
Civil Twilight 6:35 AM WEST 8:16 PM WEST
Nautical Twilight 6:05 AM WEST 8:46 PM WEST
Astronomical Twilight 5:34 AM WEST 9:17 PM WEST
Moon 4:10 AM WEST (9/2) 5:53 PM WEST (9/2)
Length of Visible Light 13h 41m
Length of Day
12h 50m
Waning Crescent, 9% of the Moon is Illuminated
Sep 2
Waning Crescent
Sep 5
New
Sep 12
First Quarter
Sep 19
Full
Sep 27
Last Quarter

Hourly Weather History & Observations

Time (WEST) Temp. Heat Index Dew Point Humidity Pressure Visibility Wind Dir Wind Speed Gust Speed Precip Events Conditions
12:00 AM 69.8 °F - 64.4 °F 83% 29.95 in - Calm Calm - N/A   Unknown
12:30 AM 68.0 °F - 62.6 °F 83% 29.95 in 3.7 mi Calm Calm - N/A   Partly Cloudy
1:00 AM 65 °F - 62 °F 86% 29.95 in 4 mi Calm Calm - -   Scattered Clouds
1:00 AM 64.4 °F - 60.8 °F 88% 29.95 in 3.7 mi Calm Calm - N/A   Partly Cloudy
2:00 AM 64.4 °F - 60.8 °F 88% 29.92 in 3.7 mi Calm Calm - N/A   Partly Cloudy
2:30 AM 64.4 °F - 60.8 °F 88% 29.92 in 3.7 mi Calm Calm - N/A   Partly Cloudy
3:00 AM 62.6 °F - 60.8 °F 94% 29.92 in 3.7 mi Calm Calm - N/A   Partly Cloudy
3:30 AM 62.6 °F - 60.8 °F 94% 29.92 in - Calm Calm - N/A   Unknown
4:00 AM 63 °F - 60 °F 88% 29.92 in 4 mi Calm Calm - -   Scattered Clouds
4:00 AM 62.6 °F - 60.8 °F 94% 29.92 in - Calm Calm - N/A   Unknown
4:30 AM 62.6 °F - 60.8 °F 94% 29.92 in 3.7 mi Calm Calm - N/A   Partly Cloudy
5:00 AM 60.8 °F - 59.0 °F 94% 29.92 in 3.7 mi Calm Calm - N/A   Partly Cloudy
6:00 AM 60.8 °F - 59.0 °F 94% 29.92 in 3.7 mi Calm Calm - N/A   Partly Cloudy
6:30 AM 60.8 °F - 57.2 °F 88% 29.92 in 3.7 mi Calm Calm - N/A   Partly Cloudy
6:56 AM 60.8 °F - 59.0 °F 94% 29.92 in 2.5 mi Calm Calm - N/A   Scattered Clouds
7:00 AM 60 °F - 58 °F 91% 29.93 in 2 mi Calm Calm - -   Mist
7:00 AM 60.8 °F - 59.0 °F 94% 29.92 in 2.5 mi Calm Calm - N/A   Scattered Clouds
7:30 AM 60.8 °F - 59.0 °F 94% 29.92 in 2.5 mi Calm Calm - N/A   Scattered Clouds
7:47 AM 60.8 °F - 59.0 °F 94% 29.92 in 2.5 mi Calm Calm - N/A   Scattered Clouds
7:49 AM 62.6 °F - 59.0 °F 88% 29.95 in 3.1 mi Calm Calm - N/A   Scattered Clouds
8:00 AM 62.6 °F - 60.8 °F 94% 29.95 in 3.1 mi Calm Calm - N/A   Scattered Clouds
8:30 AM 69.8 °F - 66.2 °F 88% 29.95 in 3.1 mi Calm Calm - N/A   Scattered Clouds
9:00 AM 73.4 °F - 64.4 °F 73% 29.95 in 3.1 mi Variable 1.2 mph - N/A   Scattered Clouds
9:30 AM 77.0 °F - 60.8 °F 57% 29.95 in 3.1 mi Calm Calm - N/A   Scattered Clouds
10:00 AM 79 °F - 64 °F 51% 29.96 in 5 mi Calm Calm - -  
10:00 AM 78.8 °F - 64.4 °F 61% 29.95 in 5.0 mi Calm Calm - N/A   Unknown
10:30 AM 77.0 °F - 64.4 °F 65% 29.95 in 5.0 mi NW 6.9 mph - N/A   Clear
11:00 AM 78.8 °F - 62.6 °F 57% 29.98 in 5.0 mi NW 5.8 mph - N/A   Clear
11:30 AM 82.4 °F 82.9 °F 60.8 °F 48% 29.95 in 5.0 mi NW 6.9 mph - N/A   Clear
12:00 PM 82.4 °F 82.5 °F 59.0 °F 45% 29.95 in 5.0 mi NW 8.1 mph - N/A   Clear
12:30 PM 82.4 °F 82.9 °F 60.8 °F 48% 29.95 in 5.0 mi NW 8.1 mph - N/A   Clear
1:00 PM 84 °F - 59 °F 33% 29.95 in 5 mi NNW 9.2 mph - -  
1:00 PM - - - N/A% 29.95 in 5.0 mi NW 9.2 mph - N/A   Unknown
1:30 PM 86.0 °F 84.9 °F 57.2 °F 37% 29.95 in 5.0 mi North 11.5 mph - N/A   Unknown
2:00 PM 86.0 °F 84.2 °F 53.6 °F 33% 29.95 in 5.0 mi North 12.7 mph - N/A   Unknown
2:30 PM 87.8 °F 85.7 °F 53.6 °F 31% 29.95 in 5.0 mi North 13.8 mph - N/A   Unknown
3:00 PM 87.8 °F 85.7 °F 53.6 °F 31% 29.92 in 5.0 mi North 16.1 mph - N/A   Unknown
3:30 PM 87.8 °F 86.1 °F 55.4 °F 33% 29.92 in 5.0 mi North 15.0 mph - N/A   Unknown
4:00 PM 87 °F - 58 °F 27% 29.92 in 5 mi North 15.0 mph - -   Clear
4:00 PM 87.8 °F 86.5 °F 57.2 °F 35% 29.92 in 5.0 mi North 15.0 mph - N/A   Unknown
4:30 PM 87.8 °F 87.1 °F 59.0 °F 38% 29.92 in 5.0 mi North 15.0 mph - N/A   Unknown
5:00 PM 87.8 °F 87.1 °F 59.0 °F 38% 29.92 in 5.0 mi North 15.0 mph - N/A   Unknown
5:30 PM 86.0 °F 84.9 °F 57.2 °F 37% 29.92 in 5.0 mi North 13.8 mph - N/A   Unknown
6:00 PM 86.0 °F 84.2 °F 53.6 °F 33% 29.92 in 5.0 mi North 13.8 mph - N/A   Unknown
6:30 PM 86.0 °F 84.5 °F 55.4 °F 35% 29.92 in 5.0 mi North 13.8 mph - N/A   Unknown
7:00 PM 84.2 °F 83.8 °F 59.0 °F 42% 29.92 in 5.0 mi North 10.4 mph - N/A   Unknown
7:30 PM 80.6 °F 81.1 °F 59.0 °F 48% 29.92 in 5.0 mi NNE 9.2 mph - N/A   Unknown
8:00 PM 78.8 °F - 60.8 °F 54% 29.92 in 3.7 mi NW 3.5 mph - N/A   Unknown
8:30 PM 75.2 °F - 62.6 °F 65% 29.95 in 3.7 mi West 2.3 mph - N/A   Unknown
9:00 PM 75.2 °F - 62.6 °F 65% 29.95 in 3.7 mi Calm Calm - N/A   Unknown
9:30 PM 75.2 °F - 64.4 °F 69% 29.95 in 3.7 mi WSW 3.5 mph - N/A   Unknown
10:00 PM 73 °F - 65 °F 69% 29.97 in 4 mi Calm Calm - -   Clear
10:00 PM 73.4 °F - 64.4 °F 73% 29.98 in 3.7 mi Calm Calm - N/A   Unknown
10:30 PM 71.6 °F - 66.2 °F 83% 29.98 in 3.7 mi Calm Calm - N/A   Unknown
11:00 PM 73.4 °F - 68.0 °F 83% 29.98 in 3.7 mi Calm Calm - N/A   Unknown
11:30 PM 71.6 °F - 66.2 °F 83% 29.98 in 3.7 mi Calm Calm - N/A   Unknown